Location: Hobi?a Gr?di?te
(45.4833°N, 22.7833°E)
Time: 11:04:29
(UTC+00:00)

Cosmos 1328 - Pass Details

Date: 28 January 2023
Orbit: 518 x 543 km, 82.5° (Epoch: 31 March)

Event Time Altitude Azimuth Distance (km) Brightness Sun altitude
Rises 17:03:25 0° 184° (S) 2,707 7.5 -16.5°
Reaches altitude 10° 17:05:35 10° 184° (S) 1,817 6.6 -16.9°
Maximum altitude 17:09:34 80° 99° (E) 561 3.7 -17.6°
Drops below altitude 10° 17:13:35 10° 11° (N) 1,822 6.3 -18.3°
Enters shadow 17:14:00 - 11° (N) 1,994 6.5 -18.4°
